Wind_Speed
8 8 8 9 9 9 8 9 8 9 10 10 11 10 9 9 9 8 8 8 7 7 7 7 7 7 7 6 5 3 2 2 1 1 1 1 1 1 1 1 1 1 1 1 1 1 1 1 1
9 9 9 9 10 10 10 11 10 10 11 11 12 11 10 10 9 9 8 8 7 8 7 8 8 7 7 6 5 3 2 1 0 0 0 0 1 1 1 2 2 2 2 2 2 2 2 2 2
9 10 9 10 11 11 11 12 11 10 11 12 12 12 11 10 10 9 9 9 8 8 8 8 9 8 7 6 5 3 2 1 0 1 1 1 2 2 2 2 3 3 3 3 3 3 3 3 4
10 10 10 11 11 12 11 11 11 12 12 13 12 12 11 11 11 10 9 9 9 8 8 9 8 7 7 5 4 4 2 1 0 1 2 1 2 3 3 3 3 3 3 3 3 3 4 4 4
11 11 11 12 12 12 11 12 12 12 12 13 13 12 12 11 11 11 10 10 10 9 9 9 8 7 6 5 4 4 3 2 1 1 1 2 3 3 4 3 3 3 3 3 3 3 4 4 4
11 11 11 12 12 12 12 13 14 14 14 13 13 12 12 12 12 11 11 12 11 10 10 9 8 7 6 5 4 3 2 2 2 2 2 3 4 4 4 3 3 3 3 3 3 4 4 5 5
12 12 12 12 12 12 12 12 13 13 13 13 13 12 12 12 12 12 13 13 12 12 11 9 8 7 6 5 4 4 3 2 2 3 3 3 4 5 4 4 3 3 3 4 4 5 5 6 6
12 12 13 13 12 13 13 13 14 14 14 14 14 13 13 13 13 13 12 13 12 12 11 10 8 7 6 6 5 4 3 2 2 3 4 4 5 5 5 5 5 4 4 4 5 4 5 5 6
12 13 14 14 13 14 14 13 14 15 14 14 13 13 13 14 14 13 12 12 12 12 11 10 9 7 7 6 5 4 3 2 2 3 4 5 5 5 5 5 5 4 4 4 4 4 5 6 6
13 13 14 13 13 13 13 13 14 15 15 15 14 13 13 13 13 13 13 13 13 12 12 10 9 8 8 6 5 4 3 2 3 4 5 6 6 5 5 5 5 5 4 4 4 5 5 6 6
12 13 13 12 13 13 13 13 13 14 15 15 14 13 13 13 13 14 13 13 13 12 12 11 10 9 8 7 5 4 3 2 3 4 5 6 6 6 6 6 5 5 5 5 6 6 6 6 6
13 14 13 13 14 14 14 14 14 14 14 14 15 14 14 15 14 14 13 13 13 12 11 11 10 10 8 7 5 4 3 2 3 4 5 5 6 6 6 6 5 5 6 6 6 6 6 6 6
11 12 13 13 14 14 15 15 14 14 14 14 14 15 15 14 14 15 14 13 13 12 11 11 10 9 8 7 6 5 3 3 3 4 4 5 6 6 6 6 6 6 6 7 7 6 6 6 6
10 11 12 13 13 14 14 15 15 15 14 14 13 14 15 14 15 15 14 13 13 13 12 11 10 10 8 7 6 5 4 4 4 4 5 5 6 6 6 6 6 6 7 7 7 7 6 6 5
10 11 12 12 12 12 13 14 16 16 15 14 14 14 14 14 15 14 14 14 14 13 13 12 11 10 9 8 6 6 5 4 4 5 5 5 6 6 6 6 6 7 7 8 7 6 6 6 6
10 10 11 12 12 12 13 13 14 15 15 15 15 15 14 13 14 13 13 14 14 14 13 13 12 10 10 8 7 6 5 4 4 5 5 6 6 6 6 6 7 7 7 7 7 6 6 6 6
10 10 11 11 12 12 13 14 14 15 15 15 15 15 14 14 13 13 13 13 13 13 12 12 12 11 10 9 7 6 5 5 5 5 6 6 6 6 6 6 7 7 7 7 7 7 6 6 5
10 11 11 12 12 13 13 13 14 14 14 14 14 14 14 14 14 13 12 12 12 11 12 12 12 10 9 9 8 7 6 6 5 5 6 6 6 6 6 6 7 7 7 7 6 6 6 6 5
10 11 11 12 12 12 13 14 14 14 14 14 14 15 14 13 14 14 13 12 11 11 11 11 10 10 9 9 8 8 7 6 6 6 6 6 6 6 6 6 7 7 6 6 6 6 6 6 5
11 11 11 12 12 13 14 15 15 14 14 14 14 15 15 14 14 14 14 13 12 11 11 11 10 9 9 9 8 8 8 7 7 7 7 6 6 6 6 6 6 6 6 6 6 6 5 5 4
11 12 12 12 12 13 14 15 15 14 14 14 15 15 15 15 14 14 14 13 13 12 11 11 10 9 9 9 9 8 8 7 7 7 7 7 6 6 6 6 5 6 6 6 6 6 5 4 4
11 11 11 11 12 13 14 13 14 14 14 15 15 15 15 15 14 13 14 14 14 13 12 12 11 10 10 10 10 9 8 8 8 7 7 7 7 6 6 6 6 6 6 6 6 6 5 4 4
11 11 11 11 12 12 13 13 13 14 14 14 14 14 14 15 15 15 14 15 15 14 13 13 12 12 11 11 11 10 9 8 8 8 7 7 7 7 6 6 6 6 6 6 6 5 5 5 4
10 11 10 10 11 12 12 13 12 13 13 13 13 14 14 15 16 16 16 16 16 15 14 13 12 12 12 12 11 10 10 9 8 7 7 7 7 7 6 6 6 6 6 6 5 5 5 5 5
10 9 9 9 10 10 11 12 13 13 13 13 14 14 14 14 16 16 16 16 16 15 15 14 13 12 12 11 11 10 9 9 9 8 7 6 6 7 7 7 6 6 6 6 6 6 6 5 5
9 9 9 9 9 9 11 13 13 13 14 14 14 14 15 15 15 16 15 16 16 15 15 14 14 13 12 11 10 10 10 10 9 8 7 7 6 7 6 6 6 6 6 6 6 6 6 6 6
10 10 9 10 11 11 12 13 13 14 14 13 13 14 14 15 14 14 14 14 15 16 15 14 13 12 12 12 11 11 10 10 10 9 8 8 8 7 7 7 7 7 6 6 6 6 6 7 7
11 11 11 11 11 11 11 12 12 12 13 13 12 13 13 13 14 14 13 13 14 15 15 14 13 13 13 13 12 11 11 11 11 10 10 9 9 8 7 7 7 7 7 7 6 7 7 7 7
10 11 12 11 11 11 11 11 12 12 12 12 12 12 12 12 13 14 15 14 15 15 15 14 14 13 13 13 12 12 12 12 12 11 10 9 9 9 8 7 7 7 8 8 7 7 7 8 8
10 12 12 12 11 11 12 11 11 11 11 11 11 12 12 12 13 13 14 14 15 15 15 15 14 14 14 13 13 13 12 12 12 12 11 11 10 9 9 8 8 8 8 8 8 8 9 9 9
Wind_Direction
233 232 232 227 228 226 224 225 221 219 216 215 214 213 209 210 214 218 214 211 209 207 206 201 194 186 177 173 166 155 148 146 130 102 109 113 80 58 53 32 13 345 328 319 300 283 239 223 241
228 230 230 229 229 229 228 229 224 224 221 219 216 216 217 218 219 219 217 216 213 209 205 197 192 188 189 184 176 172 166 157 156 6 342 13 13 9 3 346 328 315 307 297 297 290 273 263 262
228 230 228 229 231 228 229 231 228 225 222 220 217 218 220 220 219 220 219 217 213 211 205 202 198 193 193 190 187 196 203 175 324 344 350 349 346 341 340 334 324 314 303 292 287 286 275 268 266
229 228 227 228 229 227 231 233 226 223 221 219 217 218 218 219 220 220 219 215 212 211 210 208 205 201 196 193 199 212 211 203 302 350 355 8 351 337 333 328 329 325 311 300 291 287 285 280 274
231 225 225 228 228 228 232 230 224 221 222 219 217 220 222 222 221 222 220 217 214 213 213 211 209 208 196 199 208 212 210 221 273 321 357 10 356 340 332 327 336 336 323 304 295 292 289 285 277
230 227 228 228 229 232 227 226 224 220 221 220 219 218 220 223 224 225 222 218 216 213 214 210 211 210 202 201 202 210 220 252 286 316 333 356 358 347 337 335 331 320 317 309 294 289 283 285 282
229 228 231 228 227 230 227 226 223 222 222 222 221 221 221 223 225 227 221 221 219 218 217 214 216 209 203 208 218 224 236 258 284 318 328 339 351 350 343 334 325 319 317 313 301 295 287 286 284
229 230 231 230 227 230 228 226 225 225 225 225 223 225 225 225 226 226 223 223 224 222 217 217 218 218 212 210 220 226 234 261 311 329 332 335 345 351 346 337 330 321 314 310 307 297 289 286 282
232 231 230 230 228 231 228 230 230 230 227 227 226 228 228 228 230 228 225 223 223 222 220 218 222 221 214 212 216 220 228 283 305 329 337 342 348 347 348 344 336 328 320 313 310 298 287 283 282
231 231 231 232 231 231 229 229 231 231 229 229 229 229 230 231 227 228 227 225 224 225 226 224 220 219 218 218 219 223 236 293 309 323 335 340 341 340 343 349 344 337 332 324 316 307 297 291 287
234 233 233 233 231 230 231 232 231 232 230 230 229 230 231 232 230 226 226 227 228 228 231 229 224 217 218 220 217 228 235 294 323 331 336 338 341 341 341 342 346 338 330 327 323 315 304 295 289
237 237 234 236 232 231 233 234 230 228 230 231 232 230 232 234 235 229 225 229 231 232 232 230 230 226 223 223 223 234 250 291 312 324 329 338 341 341 339 340 335 333 329 325 324 319 309 303 296
236 235 233 233 232 234 235 235 231 231 230 233 234 231 232 234 236 236 233 230 232 234 230 227 227 231 230 230 234 245 255 278 296 313 321 330 337 339 337 336 334 330 327 325 325 322 315 312 306
234 233 232 232 233 233 235 235 232 233 232 232 235 232 232 235 238 239 235 232 231 232 230 230 228 228 230 229 238 240 249 266 288 308 316 323 331 336 337 336 333 331 328 325 328 328 327 320 306
240 233 232 234 234 236 237 237 236 237 236 234 233 232 231 236 241 241 236 233 231 230 231 235 229 228 227 227 236 239 245 257 282 301 312 321 329 333 333 336 335 334 334 336 330 327 326 319 307
243 240 240 238 239 237 238 243 243 242 242 240 237 235 233 236 240 239 238 233 232 228 230 234 229 227 226 230 237 241 254 269 285 299 310 316 323 327 331 333 334 334 333 333 333 328 324 320 314
243 238 241 241 242 239 241 244 245 244 241 242 241 239 238 237 240 240 238 233 231 228 229 229 228 227 230 234 238 245 257 270 281 296 308 313 318 324 324 329 335 333 330 330 330 328 328 321 316
241 243 244 245 243 242 243 244 241 240 244 243 243 243 244 242 242 240 237 232 228 227 225 222 223 229 235 234 241 245 249 261 274 292 303 311 314 318 319 324 332 332 329 329 329 327 326 323 317
244 244 245 248 244 241 242 244 244 241 243 242 243 243 241 242 241 237 235 231 228 224 217 218 222 228 229 232 238 245 247 258 273 287 296 304 311 314 317 319 324 330 330 330 329 327 325 324 319
243 241 241 247 245 243 242 242 245 242 241 241 241 242 246 242 240 234 233 230 227 221 217 222 226 230 229 231 236 242 246 259 271 281 290 298 306 310 314 318 320 324 329 332 334 335 331 326 318
243 244 238 240 241 242 247 245 246 242 240 241 242 243 244 242 239 233 231 226 224 219 216 224 227 231 231 236 239 241 249 260 269 280 285 292 299 306 309 311 315 317 324 330 334 339 340 335 323
241 243 242 243 241 241 244 248 245 244 242 242 243 242 241 240 233 230 229 225 223 220 221 226 228 233 236 240 246 246 251 259 268 279 287 288 291 298 304 307 308 311 318 327 331 330 332 336 330
238 238 237 241 243 246 248 249 253 251 244 242 242 243 240 238 234 230 227 228 227 223 223 227 230 235 238 239 246 248 253 260 268 273 278 286 288 291 296 299 301 301 308 317 325 328 332 332 328
234 233 232 237 241 248 249 245 248 254 251 247 245 244 242 239 233 231 229 229 229 226 224 227 232 236 238 240 243 245 251 257 265 273 279 280 286 295 295 291 296 294 299 306 313 320 324 323 323
230 231 233 239 245 252 251 246 249 254 256 251 250 247 240 237 232 233 231 231 226 226 228 229 231 234 236 240 240 242 248 255 261 267 275 280 282 287 292 292 291 292 295 298 303 308 311 314 317
234 228 233 238 242 250 250 248 251 255 257 253 251 248 241 238 236 234 232 230 227 229 230 232 236 236 234 235 240 247 249 254 260 264 271 276 280 283 289 291 289 292 296 295 301 303 306 309 312
234 229 225 233 236 245 251 250 254 255 255 251 248 247 241 237 238 236 233 232 230 229 230 233 238 239 237 237 239 245 249 254 258 262 264 266 272 278 283 288 286 285 285 290 295 300 304 308 306
235 226 223 231 231 236 243 250 256 257 256 253 250 245 238 239 237 234 233 232 230 230 232 233 235 238 238 239 242 246 251 257 260 261 262 266 271 276 278 282 282 281 278 281 291 303 306 303 302
233 229 231 233 238 234 244 250 257 263 258 252 250 244 240 240 236 234 233 232 232 229 230 233 235 236 236 238 243 248 251 253 256 259 261 261 264 267 274 277 284 285 283 283 289 299 307 308 305
238 232 233 233 235 237 246 247 252 262 259 254 248 243 238 236 236 233 232 234 233 231 231 234 235 235 237 239 245 247 249 252 255 259 261 261 260 264 269 272 278 284 284 284 290 296 301 303 303
Height
5866 5867 5868 5870 5872 5873 5873 5874 5875 5876 5877 5878 5879 5881 5882 5884 5886 5889 5888 5887 5888 5889 5890 5891 5891 5892 5893 5894 5894 5894 5895 5895 5895 5894 5894 5894 5894 5893 5893 5893 5893 5893 5893 5893 5893 5893 5894 5894 5894
5864 5866 5868 5869 5870 5871 5872 5872 5873 5875 5876 5877 5878 5880 5882 5883 5884 5885 5886 5887 5888 5888 5889 5890 5891 5892 5893 5894 5894 5895 5895 5895 5895 5895 5894 5894 5894 5893 5893 5893 5893 5893 5893 5893 5893 5893 5893 5894 5894
5862 5864 5866 5868 5868 5869 5870 5870 5872 5874 5875 5876 5878 5880 5881 5882 5884 5884 5885 5886 5887 5888 5889 5890 5891 5892 5893 5893 5894 5894 5895 5895 5895 5895 5894 5894 5894 5893 5893 5893 5892 5892 5892 5892 5892 5892 5893 5893 5893
5861 5863 5865 5866 5866 5867 5868 5869 5871 5872 5874 5875 5877 5879 5880 5881 5883 5884 5885 5886 5887 5888 5889 5890 5891 5892 5892 5893 5894 5894 5894 5895 5895 5895 5894 5894 5893 5893 5893 5892 5892 5892 5891 5891 5892 5892 5892 5892 5892
5860 5861 5863 5864 5864 5865 5867 5868 5869 5871 5872 5874 5876 5878 5879 5881 5882 5883 5884 5885 5886 5887 5888 5889 5890 5891 5892 5893 5893 5894 5894 5894 5895 5895 5894 5894 5893 5893 5892 5892 5891 5891 5891 5891 5891 5891 5891 5891 5892
5858 5860 5861 5862 5863 5864 5865 5866 5868 5869 5871 5873 5875 5877 5878 5880 5881 5882 5883 5884 5886 5887 5888 5889 5890 5891 5892 5892 5893 5893 5894 5894 5894 5894 5894 5894 5893 5892 5892 5891 5891 5890 5890 5890 5890 5890 5890 5890 5891
5857 5858 5859 5859 5861 5862 5864 5865 5866 5868 5870 5872 5874 5876 5877 5878 5880 5881 5882 5883 5885 5886 5887 5888 5889 5890 5891 5892 5892 5893 5894 5894 5894 5894 5894 5893 5893 5892 5891 5891 5890 5890 5889 5889 5889 5889 5889 5889 5889
5854 5857 5857 5857 5859 5861 5862 5864 5865 5867 5869 5871 5873 5875 5876 5877 5879 5880 5881 5882 5884 5885 5886 5887 5889 5890 5890 5891 5892 5893 5893 5893 5894 5893 5893 5893 5892 5892 5891 5890 5890 5889 5889 5889 5888 5888 5888 5888 5888
5852 5855 5855 5856 5857 5859 5861 5862 5864 5865 5867 5869 5871 5873 5874 5876 5877 5878 5880 5881 5883 5884 5885 5887 5888 5889 5890 5891 5891 5892 5893 5893 5893 5893 5893 5892 5892 5891 5891 5890 5889 5888 5888 5888 5887 5887 5887 5887 5887
5850 5852 5853 5854 5856 5857 5859 5861 5862 5864 5866 5867 5870 5871 5873 5874 5876 5877 5879 5880 5882 5883 5885 5886 5887 5888 5889 5890 5891 5891 5892 5892 5893 5893 5893 5892 5891 5891 5890 5889 5888 5887 5887 5887 5886 5886 5886 5885 5885
5848 5850 5850 5852 5854 5856 5857 5859 5861 5862 5864 5866 5868 5870 5871 5872 5874 5876 5877 5879 5880 5882 5883 5885 5886 5887 5888 5889 5890 5891 5892 5892 5892 5892 5892 5891 5890 5890 5889 5888 5887 5887 5886 5886 5885 5885 5884 5884 5884
5846 5848 5849 5850 5852 5854 5856 5857 5859 5860 5863 5864 5866 5868 5869 5871 5873 5874 5876 5878 5879 5881 5882 5883 5885 5886 5888 5889 5890 5890 5891 5891 5891 5891 5891 5890 5890 5889 5889 5888 5887 5886 5886 5885 5884 5884 5883 5883 5882
5844 5845 5847 5849 5850 5852 5854 5856 5857 5859 5861 5862 5864 5866 5868 5870 5871 5873 5874 5876 5878 5879 5881 5882 5884 5885 5887 5888 5889 5890 5890 5891 5891 5891 5890 5890 5889 5889 5888 5887 5886 5885 5885 5884 5884 5883 5882 5881 5880
5843 5844 5845 5847 5849 5850 5852 5854 5856 5857 5859 5861 5862 5864 5866 5868 5870 5871 5873 5874 5876 5878 5880 5881 5883 5884 5886 5887 5888 5889 5890 5890 5890 5890 5890 5889 5888 5888 5887 5886 5885 5885 5884 5883 5882 5882 5881 5880 5880
5841 5842 5844 5845 5847 5849 5850 5852 5853 5855 5857 5859 5861 5863 5864 5866 5868 5869 5871 5873 5875 5877 5879 5880 5882 5883 5885 5886 5887 5888 5889 5889 5889 5889 5889 5888 5888 5887 5886 5885 5884 5884 5883 5882 5881 5880 5879 5879 5878
5839 5841 5842 5844 5845 5847 5850 5851 5852 5853 5855 5857 5859 5860 5862 5864 5866 5867 5869 5871 5873 5875 5877 5879 5880 5882 5884 5885 5886 5887 5888 5888 5888 5888 5888 5888 5887 5886 5885 5884 5884 5883 5882 5881 5880 5879 5878 5877 5877
5837 5839 5840 5842 5843 5845 5847 5848 5850 5851 5853 5855 5857 5858 5860 5862 5864 5865 5867 5869 5871 5873 5875 5877 5879 5881 5882 5884 5885 5886 5887 5887 5887 5887 5887 5887 5886 5885 5885 5884 5883 5882 5881 5880 5879 5878 5877 5876 5876
5837 5838 5839 5840 5841 5843 5845 5846 5848 5849 5851 5853 5854 5856 5858 5860 5862 5864 5865 5867 5869 5871 5873 5875 5878 5879 5881 5882 5883 5884 5886 5886 5887 5886 5886 5886 5885 5885 5884 5883 5882 5881 5880 5879 5878 5877 5876 5875 5874
5834 5836 5836 5838 5839 5841 5843 5844 5846 5848 5849 5851 5853 5854 5856 5858 5859 5861 5864 5865 5867 5870 5872 5874 5876 5878 5880 5881 5882 5883 5884 5885 5886 5885 5885 5885 5884 5884 5883 5882 5881 5880 5879 5878 5877 5876 5875 5874 5874
5832 5834 5835 5836 5837 5839 5840 5842 5843 5845 5847 5848 5850 5852 5853 5856 5858 5860 5861 5864 5865 5868 5870 5873 5875 5877 5878 5879 5881 5882 5883 5884 5884 5884 5884 5884 5883 5883 5882 5881 5881 5880 5879 5878 5877 5875 5874 5874 5873
5830 5832 5832 5834 5835 5837 5838 5840 5841 5843 5845 5846 5848 5850 5851 5853 5855 5858 5860 5862 5864 5867 5869 5872 5874 5875 5877 5878 5879 5881 5882 5882 5883 5883 5883 5883 5882 5882 5881 5881 5880 5879 5878 5877 5876 5875 5874 5873 5873
5828 5829 5830 5831 5833 5834 5837 5838 5839 5840 5842 5844 5846 5847 5849 5851 5853 5855 5857 5860 5862 5865 5867 5870 5872 5873 5875 5876 5878 5879 5880 5881 5882 5882 5881 5881 5881 5881 5880 5880 5879 5878 5877 5877 5876 5875 5874 5873 5873
5826 5828 5829 5829 5831 5833 5834 5835 5837 5838 5840 5842 5843 5845 5847 5848 5850 5853 5855 5858 5860 5863 5865 5868 5870 5871 5873 5874 5876 5877 5878 5879 5880 5880 5880 5880 5880 5879 5879 5878 5878 5877 5877 5876 5875 5874 5874 5873 5872
5824 5826 5827 5827 5829 5831 5832 5834 5835 5835 5837 5839 5841 5842 5844 5846 5848 5850 5853 5855 5858 5860 5863 5865 5867 5869 5870 5872 5873 5875 5876 5877 5878 5878 5878 5878 5878 5878 5877 5877 5877 5876 5876 5875 5875 5874 5873 5873 5872
5823 5825 5826 5826 5827 5829 5830 5832 5833 5833 5835 5837 5839 5840 5842 5844 5846 5848 5850 5853 5856 5858 5860 5862 5864 5866 5868 5870 5871 5872 5874 5875 5876 5876 5877 5877 5877 5876 5876 5876 5875 5875 5875 5874 5874 5873 5873 5872 5872
5821 5823 5825 5826 5827 5828 5829 5830 5832 5832 5833 5835 5836 5838 5839 5841 5843 5845 5848 5850 5853 5855 5858 5860 5862 5864 5866 5867 5869 5871 5872 5873 5874 5874 5875 5875 5875 5875 5875 5874 5874 5874 5873 5873 5873 5872 5872 5871 5871
5819 5820 5823 5824 5825 5826 5827 5828 5829 5830 5831 5832 5834 5835 5837 5839 5841 5843 5845 5848 5850 5853 5855 5857 5859 5861 5863 5865 5867 5868 5870 5871 5871 5872 5873 5873 5873 5873 5873 5873 5872 5872 5872 5872 5872 5871 5871 5870 5869
5818 5819 5821 5822 5823 5824 5825 5826 5827 5827 5829 5830 5831 5833 5834 5836 5839 5841 5843 5845 5848 5850 5852 5855 5857 5859 5861 5862 5864 5866 5867 5868 5869 5870 5870 5871 5871 5871 5871 5871 5871 5871 5871 5870 5870 5870 5869 5869 5868
5817 5818 5819 5819 5820 5822 5823 5826 5824 5825 5826 5828 5829 5830 5832 5834 5836 5838 5840 5843 5845 5847 5849 5851 5854 5856 5858 5860 5861 5863 5864 5865 5866 5867 5868 5869 5869 5869 5869 5870 5869 5869 5869 5869 5869 5869 5868 5867 5867
5814 5815 5817 5818 5819 5820 5821 5825 5822 5823 5824 5825 5827 5828 5830 5832 5834 5835 5837 5840 5842 5844 5846 5849 5851 5853 5855 5857 5859 5860 5861 5863 5864 5864 5865 5866 5866 5867 5867 5868 5868 5868 5867 5867 5867 5867 5866 5866 5865